GW5931 Weather Reports


time (UTC)temp
C
wind
direction
speed
KPH
gust
KPH
rain 1hr
cm
rain 24hr
cm
rain mn
cm
humidity
%
barometer
mb
20260509111529 7 178 6.4 11.3 0.00 0.05 0.00 75 1006.0
20260509110022 7 186 6.4 14.5 0.00 0.05 0.00 74 1006.0
20260509104521 7 180 6.4 11.3 0.00 0.05 0.00 73 1005.8
20260509103015 7 184 8.0 16.1 0.00 0.05 0.00 73 1005.8
20260509101513 6 170 6.4 12.9 0.00 0.05 0.00 73 1005.7
20260509100039 6 175 4.8 9.7 0.00 0.05 0.00 72 1005.7
20260509094545 6 170 6.4 9.7 0.00 0.05 0.00 71 1005.7
20260509093035 6 176 4.8 12.9 0.00 0.05 0.00 70 1005.8
20260509091534 6 183 6.4 11.3 0.00 0.05 0.00 69 1005.8
20260509090053 6 175 6.4 11.3 0.00 0.05 0.00 68 1005.8
20260509084534 6 175 6.4 12.9 0.00 0.05 0.00 68 1005.9
20260509083005 6 182 6.4 11.3 0.00 0.05 0.00 68 1005.9
20260509081601 6 172 8.0 12.9 0.00 0.05 0.00 67 1006.0
20260509080111 6 171 8.0 14.5 0.00 0.05 0.00 66 1006.2
20260509074555 6 178 4.8 11.3 0.00 0.05 0.00 67 1006.2
20260509073107 6 170 6.4 12.9 0.00 0.05 0.00 67 1006.3
20260509071553 6 169 8.0 12.9 0.00 0.05 0.00 66 1006.4
20260509070055 6 177 4.8 9.7 0.00 0.05 0.00 66 1006.6
20260509064546 6 178 4.8 9.7 0.00 0.08 0.00 65 1006.7
20260509063049 6 184 4.8 11.3 0.00 0.08 0.00 65 1006.9
20260509061541 6 184 3.2 8.0 0.00 0.08 0.00 66 1007.1
20260509060039 6 173 3.2 8.0 0.00 0.08 0.00 67 1007.2
20260509054535 5 178 4.8 8.0 0.00 0.08 0.00 69 1007.4
20260509053041 5 171 3.2 8.0 0.00 0.08 0.00 72 1007.6
20260509051531 5 174 1.6 4.8 0.00 0.08 0.00 71 1007.9
20260509050046 6 174 1.6 4.8 0.00 0.08 0.00 72 1008.0
20260509044522 6 174 1.6 6.4 0.00 0.08 0.00 72 1008.1
20260509043033 6 174 3.2 6.4 0.00 0.08 0.00 72 1008.2
20260509041518 6 183 4.8 8.0 0.00 0.08 0.00 73 1008.3
20260509040015 6 154 3.2 8.0 0.00 0.08 0.00 75 1008.4
20260509034543 6 145 3.2 4.8 0.00 0.10 0.08 77 1008.5
20260509033058 5 139 1.6 4.8 0.00 0.10 0.08 80 1008.5
20260509031540 5 138 1.6 3.2 0.00 0.10 0.08 81 1008.6
20260509030040 5 138 0.0 3.2 0.00 0.10 0.08 81 1008.7
20260509024541 5 138 0.0 3.2 0.00 0.18 0.08 80 1008.6
20260509023039 6 138 0.0 1.6 0.00 0.18 0.08 79 1008.6
20260509021536 6 138 0.0 1.6 0.00 0.18 0.08 78 1008.6
20260509020037 6 138 0.0 1.6 0.00 0.18 0.08 76 1008.6
20260509014535 7 138 0.0 0.0 0.00 0.23 0.08 74 1008.6
20260509013038 7 138 0.0 1.6 0.00 0.23 0.08 72 1008.6
20260509011507 8 138 0.0 3.2 0.00 0.23 0.08 71 1008.6
20260509010011 9 106 1.6 4.8 0.00 0.23 0.08 67 1008.5
20260509004500 10 90 0.0 1.6 0.00 0.25 0.08 64 1008.2
20260509003102 10 90 1.6 4.8 0.00 0.25 0.08 62 1008.0
20260509001600 11 84 3.2 11.3 0.00 0.25 0.08 59 1007.9
20260509000059 12 360 0.0 3.2 0.00 0.25 0.08 44 1007.8
20260508234557 12 360 0.0 3.2 0.00 0.25 0.08 45 1007.8
20260508233057 13 360 0.0 3.2 0.00 0.25 0.08 46 1007.8
20260508231557 13 5 3.2 8.0 0.00 0.25 0.08 47 1007.7
20260508230052 13 256 1.6 12.9 0.00 0.25 0.08 40 1007.7
20260508224607 13 209 1.6 9.7 0.00 0.25 0.08 41 1007.7
20260508223049 13 252 3.2 6.4 0.00 0.25 0.08 40 1007.7
20260508221555 13 291 3.2 12.9 0.00 0.25 0.08 41 1007.8
20260508220046 12 216 0.0 4.8 0.00 0.25 0.08 46 1007.8
20260508214547 13 216 1.6 4.8 0.00 0.25 0.08 43 1007.9
20260508213042 12 146 1.6 4.8 0.00 0.25 0.08 45 1007.9
20260508211547 12 244 1.6 6.4 0.00 0.25 0.08 45 1008.0
20260508210042 12 339 1.6 11.3 0.00 0.25 0.08 47 1008.0
20260508204537 12 146 3.2 8.0 0.00 0.25 0.08 54 1008.1
20260508203036 13 350 3.2 8.0 0.00 0.25 0.08 52 1008.2
20260508201537 12 285 1.6 9.7 0.00 0.25 0.08 50 1008.4
20260508200041 12 306 6.4 19.3 0.00 0.25 0.08 52 1008.7
20260508194526 12 355 9.7 22.5 0.00 0.25 0.08 57 1008.9
20260508193024 12 316 12.9 20.9 0.00 0.25 0.08 45 1009.0
20260508191523 12 290 9.7 17.7 0.00 0.25 0.08 52 1009.1
20260508190023 12 285 12.9 27.4 0.00 0.25 0.08 43 1009.1
20260508184526 12 306 12.9 20.9 0.00 0.25 0.08 43 1009.2
20260508183019 12 252 8.0 19.3 0.00 0.25 0.08 47 1009.1
20260508181517 11 243 4.8 25.7 0.00 0.25 0.08 45 1009.3
20260508180016 11 287 11.3 19.3 0.00 0.25 0.08 49 1009.4
20260508174511 11 302 8.0 19.3 0.00 0.25 0.08 49 1009.5
20260508173008 11 207 8.0 19.3 0.00 0.25 0.08 54 1009.6
20260508171509 11 273 9.7 22.5 0.00 0.25 0.08 58 1009.7
20260508170002 10 240 12.9 24.1 0.00 0.25 0.08 63 1009.9
20260508164601 10 239 6.4 17.7 0.00 0.25 0.08 63 1010.0
20260508163057 10 250 9.7 22.5 0.00 0.25 0.08 65 1010.2
20260508161554 9 258 8.0 14.5 0.00 0.25 0.08 65 1010.4
20260508160059 8 266 8.0 14.5 0.00 0.25 0.08 66 1010.5
20260508154552 8 249 6.4 20.9 0.00 0.25 0.08 62 1010.6
20260508153045 8 244 3.2 16.1 0.00 0.25 0.08 71 1010.6
20260508151546 7 291 8.0 14.5 0.00 0.25 0.08 76 1010.6
20260508150053 7 286 8.0 14.5 0.00 0.25 0.08 80 1010.6
20260508144545 7 192 9.7 12.9 0.00 0.25 0.08 84 1010.5
20260508143040 6 244 9.7 17.7 0.00 0.25 0.08 84 1010.5
20260508141530 6 209 4.8 14.5 0.00 0.25 0.08 86 1010.5
20260508140037 6 252 8.0 16.1 0.00 0.25 0.08 87 1010.3
20260508134530 6 217 8.0 14.5 0.00 0.25 0.08 88 1010.3
20260508133023 5 233 4.8 9.7 0.03 0.25 0.08 87 1010.5
20260508131522 5 239 4.8 12.9 0.03 0.25 0.08 87 1010.8
20260508130120 5 255 6.4 12.9 0.05 0.25 0.08 88 1010.6
20260508124521 5 261 4.8 14.5 0.05 0.25 0.08 88 1010.5
20260508123013 5 294 9.7 16.1 0.03 0.23 0.05 87 1010.5
20260508121517 5 286 8.0 20.9 0.03 0.23 0.05 87 1010.5
20260508120014 5 274 9.7 22.5 0.00 0.20 0.03 89 1010.4
20260508114523 5 273 9.7 14.5 0.00 0.20 0.03 92 1010.1
20260508113005 5 277 8.0 12.9 0.00 0.20 0.03 92 1009.6